TimeCET,TemperatureF,Dew PointF,Humidity,Sea Level PressureIn,VisibilityMPH,Wind Direction,Wind SpeedMPH,Gust SpeedMPH,PrecipitationIn,Events,Conditions,WindDirDegrees,DateUTC
12:50 AM,48.2,42.8,82,29.80,1.2,Variable,1.2,-,N/A,,Mostly Cloudy,0,2013-03-28 23:50:00
1:50 AM,46.4,42.8,87,29.80,1.2,Variable,1.2,-,N/A,,Mostly Cloudy,0,2013-03-29 00:50:00
2:00 AM,48.2,44.6,87,29.80,0.9,Variable,1.2,-,N/A,,Mostly Cloudy,0,2013-03-29 01:00:00
2:08 AM,46.4,42.8,87,29.80,0.1,Variable,2.3,-,N/A,Fog,Fog,0,2013-03-29 01:08:00
2:25 AM,46.4,42.8,87,29.77,0.4,Variable,1.2,-,N/A,Fog,Fog,0,2013-03-29 01:25:00
2:50 AM,44.6,41.0,87,29.80,0.5,Variable,1.2,-,N/A,Fog,Fog,0,2013-03-29 01:50:00
3:26 AM,48.2,44.6,87,29.77,1.2,Variable,2.3,-,N/A,,Scattered Clouds,0,2013-03-29 02:26:00
3:50 AM,48.2,44.6,87,29.77,1.2,Variable,2.3,-,N/A,,Scattered Clouds,0,2013-03-29 02:50:00
4:50 AM,50.0,44.6,82,29.74,2.5,Variable,2.3,-,N/A,,Partly Cloudy,0,2013-03-29 03:50:00
5:50 AM,51.8,48.2,88,29.74,6.2,South,6.9,-,N/A,,Scattered Clouds,180,2013-03-29 04:50:00
6:50 AM,57.2,48.2,72,29.74,6.2,South,6.9,-,N/A,,Scattered Clouds,170,2013-03-29 05:50:00
8:50 AM,68.0,50.0,52,29.74,6.2,SSW,19.6,-,N/A,,Scattered Clouds,210,2013-03-29 07:50:00
9:50 AM,68.0,50.0,52,29.74,6.2,SSW,19.6,33.4,N/A,,Scattered Clouds,210,2013-03-29 08:50:00
10:50 AM,71.6,48.2,43,29.74,6.2,SSW,19.6,-,N/A,,Scattered Clouds,210,2013-03-29 09:50:00
11:50 AM,73.4,50.0,44,29.74,6.2,SSW,17.3,-,N/A,,Scattered Clouds,210,2013-03-29 10:50:00
12:50 PM,73.4,50.0,44,29.71,6.2,SSW,17.3,-,N/A,,Scattered Clouds,200,2013-03-29 11:50:00
1:50 PM,71.6,46.4,41,29.71,6.2,SW,12.7,-,N/A,,Scattered Clouds,220,2013-03-29 12:50:00
2:50 PM,62.6,48.2,59,29.71,6.2,NNE,8.1,-,N/A,,Scattered Clouds,30,2013-03-29 13:50:00
3:50 PM,62.6,50.0,63,29.71,6.2,NE,8.1,-,N/A,,Mostly Cloudy,40,2013-03-29 14:50:00
4:50 PM,59.0,48.2,67,29.68,6.2,North,4.6,-,N/A,,Mostly Cloudy,10,2013-03-29 15:50:00
5:50 PM,59.0,50.0,72,29.71,6.2,West,4.6,-,N/A,,Mostly Cloudy,280,2013-03-29 16:50:00
6:50 PM,59.0,50.0,72,29.71,6.2,Variable,1.2,-,N/A,,Scattered Clouds,0,2013-03-29 17:50:00
7:50 PM,59.0,50.0,72,29.68,6.2,Variable,1.2,-,N/A,,Scattered Clouds,0,2013-03-29 18:50:00
8:50 PM,64.4,46.4,52,29.71,6.2,SW,10.4,-,N/A,,Scattered Clouds,220,2013-03-29 19:50:00
9:50 PM,64.4,44.6,49,29.71,6.2,SSW,12.7,-,N/A,,Scattered Clouds,200,2013-03-29 20:50:00
10:50 PM,64.4,44.6,49,29.68,6.2,SSW,13.8,-,N/A,,Partly Cloudy,200,2013-03-29 21:50:00
11:50 PM,62.6,44.6,52,29.71,6.2,Variable,3.5,-,N/A,,Partly Cloudy,0,2013-03-29 22:50:00